[[{"header":{"parameterUnit":"m.s-1","parameterCategory":1,"la1":30.2991,"la2":30.254,"lo1":-89.0895,"lo2":-89.0444,"dy":0.0017,"dx":0.0017,"nx":28,"ny":28,"refTime":"2023-08-23T03:00:00:Z","depth":0,"parameterNumber":2,"parameterNumberName":"U-component_of_WINDS"},"data":[0,0,0,0,0,0,0,0,0,0,0,0,0,0,0,0,0,0,0,0,0,0,0,0,0,0,0,0,0,0,0,0,0,0,0,0,0,0,0,0,0,0,0,0,0,0,0,0,0,0,0,0,0,0,0,0,0,0,-0.4012,-0.4012,0,-0.4053,-0.4053,-0.4054,-0.4167,-0.4169,-0.4171,-0.4174,-0.421,-0.4209,-0.4208,0,0,0,0,0,0,0,0,0,0,0,0,0,-0.4027,-0.4026,-0.4012,-0.4012,-0.4013,-0.4053,-0.4053,-0.4054,-0.4166,-0.4169,-0.4172,-0.4175,-0.4211,-0.4209,-0.4208,0,0,0,0,0,0,0,0,0,0,0,0,0,-0.4039,-0.4025,-0.4012,-0.4074,-0.408,-0.4053,-0.4053,-0.4054,-0.4165,-0.4169,-0.4173,-0.4176,-0.4211,-0.4209,-0.4207,-0.4122,0,0,-0.4201,-0.4201,0,0,0,0,0,0,0,0,-0.4038,-0.4038,-0.4064,-0.407,-0.4076,-0.4109,-0.4072,-0.4076,-0.4165,-0.4133,-0.4174,-0.4178,-0.4173,-0.4174,-0.4174,-0.4123,-0.4125,-0.4201,-0.42,-0.4199,-0.4199,0,0,0,0,0,0,0,-0.4037,-0.4037,-0.4028,-0.4064,-0.4072,-0.4098,-0.4104,-0.4073,-0.4132,-0.4136,-0.4144,-0.4148,-0.4177,-0.4175,-0.4176,-0.4125,-0.4201,-0.42,-0.4198,-0.4198,-0.4005,-0.4002,0,0,0,0,0,0,-0.4028,-0.4036,-0.4027,-0.4029,-0.4066,-0.4095,-0.4101,-0.4094,-0.4132,-0.4142,-0.4145,-0.4153,-0.4177,-0.4178,-0.4177,-0.4078,-0.4199,-0.4197,-0.4196,-0.4009,-0.4005,-0.4,0,0,0,0,0,0,-0.4028,-0.4026,-0.4025,-0.4035,-0.4037,-0.4091,-0.4082,-0.4093,-0.4092,-0.4139,-0.4149,-0.4133,-0.418,-0.418,-0.4135,-0.4081,-0.4196,-0.4195,-0.4014,-0.4008,-0.4002,-0.388,0,0,0,0,0,0,-0.4028,-0.4025,-0.3994,-0.4033,-0.4036,-0.3983,-0.4079,-0.4091,-0.4089,-0.41,-0.413,-0.4139,-0.4183,-0.4137,-0.4133,-0.4081,-0.4193,-0.4019,-0.4011,-0.4004,-0.3889,-0.387,-0.3855,0,0,0,0,0,-0.4028,-0.3957,-0.3992,-0.399,-0.3998,-0.3979,-0.3981,-0.4034,-0.4084,-0.4052,-0.4083,-0.4138,-0.4088,-0.4131,-0.4128,-0.4074,-0.4022,-0.4013,-0.4005,-0.3896,-0.3874,-0.3855,0,0,0,0,0,0,-0.3909,-0.3963,-0.4003,-0.3943,-0.3956,-0.3999,-0.396,-0.4009,-0.4006,-0.4017,-0.4082,-0.4088,-0.4033,-0.4049,-0.4097,-0.3992,-0.4064,-0.4054,-0.3983,-0.3962,-0.3946,-0.3942,-0.4191,0,0,0,0,0,-0.3876,-0.3858,-0.3906,-0.3848,-0.3853,-0.3905,-0.3899,-0.3939,-0.3955,-0.396,-0.3987,-0.3998,-0.3986,-0.3975,-0.3966,-0.3893,-0.39,-0.3854,-0.3837,-0.3822,-0.3812,-0.3773,-0.3753,-0.3971,-0.3971,-0.3972,0,0,-0.3807,-0.3834,-0.3819,-0.3825,-0.384,-0.3818,-0.3909,-0.3882,-0.3866,-0.3956,-0.3914,-0.3935,-0.3951,-0.3891,-0.3866,-0.3903,-0.3754,-0.3811,-0.38,-0.3797,-0.3762,-0.3741,-0.3723,-0.3965,-0.3966,-0.3967,0,0,-0.3669,-0.3689,-0.3643,-0.3657,-0.3679,-0.3714,-0.3703,-0.3738,-0.3756,-0.3716,-0.3783,-0.3764,-0.374,-0.3749,-0.3751,-0.3617,-0.3667,-0.3613,-0.3522,-0.3484,-0.3466,-0.3451,-0.3402,-0.3384,-0.3603,-0.3602,-0.3602,0,-0.358,-0.3551,-0.3613,-0.3582,-0.3582,-0.3664,-0.3617,-0.3627,-0.3643,-0.364,-0.3683,-0.3655,-0.3672,-0.3614,-0.3582,-0.3581,-0.3569,-0.3608,-0.3464,-0.345,-0.3437,-0.339,-0.3372,-0.3595,-0.3596,-0.3597,-0.3598,0,-0.344,-0.3419,-0.3378,-0.3394,-0.339,-0.3351,-0.3405,-0.3393,-0.3434,-0.3464,-0.3422,-0.3446,-0.3442,-0.3432,-0.3471,-0.338,-0.3402,-0.3453,-0.3526,-0.3408,-0.3365,-0.3348,-0.3585,-0.3588,-0.359,-0.3592,0,0,-0.3226,-0.3278,-0.3262,-0.327,-0.3301,-0.3285,-0.3249,-0.3247,-0.3235,-0.3244,-0.3214,-0.3192,-0.324,-0.3242,-0.3283,-0.3249,-0.3139,-0.3304,-0.3306,-0.3271,-0.3038,-0.2998,-0.2976,-0.3174,-0.3171,-0.3169,-0.3036,0,-0.3095,-0.3038,-0.3093,-0.3024,-0.3004,-0.3083,-0.3051,-0.3066,-0.3093,-0.3079,-0.311,-0.3093,-0.3158,-0.3159,-0.313,-0.3159,-0.3093,-0.317,-0.3144,-0.3143,-0.3135,-0.2955,-0.2912,-0.2786,-0.302,-0.3017,-0.3015,0,-0.2934,-0.2937,-0.2867,-0.2902,-0.2896,-0.2867,-0.2869,-0.2856,-0.2873,-0.2896,-0.2898,-0.2948,-0.2914,-0.2987,-0.2939,-0.299,-0.2983,-0.2996,-0.2992,-0.299,-0.307,-0.2945,-0.2747,-0.2727,-0.299,-0.2992,-0.2994,0,-0.2783,-0.277,-0.2726,-0.2731,-0.2771,-0.2748,-0.2764,-0.2786,-0.2781,-0.2783,-0.278,-0.2777,-0.2775,-0.2771,-0.2819,-0.2868,-0.2764,-0.2842,-0.2779,-0.2778,-0.2752,-0.2752,-0.2547,-0.2751,-0.2751,-0.2752,-0.2752,0,-0.263,-0.2583,-0.2659,-0.2631,-0.2581,-0.2644,-0.2592,-0.2615,-0.2634,-0.2611,-0.2679,-0.2656,-0.2721,-0.2704,-0.2742,-0.2695,-0.2694,-0.271,-0.272,-0.2702,-0.27,-0.2697,-0.2706,-0.2747,-0.2748,-0.2749,-0.275,0,-0.2451,-0.2501,-0.2458,-0.25,-0.251,-0.247,-0.2506,-0.2481,-0.2514,-0.2485,-0.2481,-0.2532,-0.2515,-0.2564,-0.2554,-0.2579,-0.2511,-0.2537,-0.2505,-0.2512,-0.2447,-0.2451,-0.2231,-0.2204,-0.2426,-0.2424,-0.2422,0,-0.2349,-0.2315,-0.2354,-0.2345,-0.2357,-0.2341,-0.2337,-0.2398,-0.2391,-0.2409,-0.2381,-0.2371,-0.2366,-0.2336,-0.2371,-0.2364,-0.2388,-0.2312,-0.2387,-0.2371,-0.2384,-0.2385,-0.2381,-0.2295,-0.2292,-0.229,-0.2288,0,-0.2161,-0.2188,-0.2181,-0.2181,-0.2175,-0.2179,-0.2186,-0.2174,-0.224,-0.2228,-0.2213,-0.2209,-0.2201,-0.2189,-0.219,-0.2204,-0.2255,-0.2264,-0.2249,-0.223,-0.2212,-0.2219,-0.246,-0.2268,-0.227,-0.2272,-0.2273,-0.2274,-0.2016,-0.199,-0.2013,-0.2003,-0.2016,-0.2021,-0.2,-0.2031,-0.2021,-0.202,-0.2056,-0.2033,-0.2051,-0.2058,-0.2067,-0.2049,-0.2084,-0.2063,-0.2057,-0.205,-0.2038,-0.2217,-0.205,-0.205,-0.2051,-0.2051,-0.2052,0,-0.183,-0.185,-0.184,-0.185,-0.1841,-0.1894,-0.1905,-0.1893,-0.1873,-0.1887,-0.1881,-0.1863,-0.1852,-0.1887,-0.188,-0.1859,-0.1882,-0.1855,-0.1856,-0.1858,-0.2008,-0.2021,-0.1836,-0.1836,-0.1836,-0.1836,-0.1836,-0.1836,-0.1732,-0.169,-0.1719,-0.1682,-0.1702,-0.1682,-0.1684,-0.1689,-0.17,-0.1678,-0.167,-0.1693,-0.1714,-0.171,-0.1702,-0.1713,-0.1706,-0.167,-0.1687,-0.1827,-0.1847,-0.1867,-0.188,-0.1668,-0.1668,-0.1539,-0.1538,-0.1537]},{"header":{"parameterUnit":"m.s-1","parameterCategory":1,"la1":30.2991,"la2":30.254,"lo1":-89.0895,"lo2":-89.0444,"dy":0.0017,"dx":0.0017,"nx":28,"ny":28,"refTime":"2023-08-23T03:00:00:Z","depth":0,"parameterNumber":3,"parameterNumberName":"V-component_of_WINDS"},"data":[0,0,0,0,0,0,0,0,0,0,0,0,0,0,0,0,0,0,0,0,0,0,0,0,0,0,0,0,0,0,0,0,0,0,0,0,0,0,0,0,0,0,0,0,0,0,0,0,0,0,0,0,0,0,0,0,0,0,-2.3925,-2.3925,0,-2.3929,-2.3929,-2.3929,-2.3876,-2.3875,-2.3873,-2.3872,-2.3876,-2.3878,-2.3879,0,0,0,0,0,0,0,0,0,0,0,0,0,-2.3874,-2.3875,-2.3925,-2.3925,-2.3925,-2.3929,-2.3929,-2.3929,-2.3876,-2.3875,-2.3873,-2.3871,-2.3876,-2.3878,-2.3879,0,0,0,0,0,0,0,0,0,0,0,0,0,-2.3889,-2.3876,-2.3925,-2.3899,-2.3897,-2.3929,-2.3929,-2.3929,-2.3877,-2.3875,-2.3872,-2.387,-2.3875,-2.3877,-2.388,-2.3937,0,0,-2.3886,-2.3887,0,0,0,0,0,0,0,0,-2.3888,-2.3891,-2.3903,-2.3901,-2.3899,-2.39,-2.3913,-2.3932,-2.3877,-2.3885,-2.3872,-2.3869,-2.3886,-2.3887,-2.3893,-2.3937,-2.3937,-2.3887,-2.3888,-2.3889,-2.389,0,0,0,0,0,0,0,-2.3887,-2.389,-2.3927,-2.3903,-2.3901,-2.3888,-2.3888,-2.3916,-2.3897,-2.3884,-2.388,-2.3881,-2.3884,-2.3891,-2.3892,-2.3937,-2.3887,-2.3889,-2.389,-2.3891,-2.4032,-2.4034,0,0,0,0,0,0,-2.389,-2.389,-2.3927,-2.3927,-2.3888,-2.3891,-2.3891,-2.3902,-2.3897,-2.3894,-2.3883,-2.3879,-2.3888,-2.389,-2.3892,-2.3961,-2.3889,-2.3891,-2.3892,-2.4029,-2.4032,-2.4035,0,0,0,0,0,0,-2.3889,-2.3893,-2.3927,-2.3907,-2.3911,-2.3894,-2.3907,-2.3903,-2.3909,-2.3896,-2.3893,-2.3893,-2.3886,-2.3889,-2.3927,-2.3961,-2.3892,-2.3894,-2.4026,-2.403,-2.4033,-2.4098,0,0,0,0,0,0,-2.3887,-2.3893,-2.3914,-2.3908,-2.3912,-2.3961,-2.3909,-2.3905,-2.3913,-2.3908,-2.3905,-2.3902,-2.3885,-2.3924,-2.3929,-2.3962,-2.3896,-2.4023,-2.4028,-2.4032,-2.4093,-2.4103,-2.4112,0,0,0,0,0,-2.3886,-2.3932,-2.3916,-2.392,-2.3938,-2.3963,-2.3965,-2.3944,-2.3916,-2.3938,-2.393,-2.3902,-2.3956,-2.3928,-2.3933,-2.3968,-2.4021,-2.4027,-2.4032,-2.4088,-2.4101,-2.4112,0,0,0,0,0,0,-2.3942,-2.3931,-2.3912,-2.3958,-2.3962,-2.3954,-2.398,-2.3958,-2.397,-2.3964,-2.3937,-2.3937,-2.398,-2.3977,-2.3947,-2.4024,-2.3984,-2.399,-2.4025,-2.4037,-2.4046,-2.4047,-2.3898,0,0,0,0,0,-2.396,-2.398,-2.3969,-2.401,-2.4013,-2.3997,-2.4006,-2.399,-2.3993,-2.3994,-2.3989,-2.3993,-2.4011,-2.4023,-2.4039,-2.4092,-2.4092,-2.4118,-2.4128,-2.4136,-2.4143,-2.4173,-2.4186,-2.4052,-2.4052,-2.4052,0,0,-2.3996,-2.3993,-2.4007,-2.4022,-2.4023,-2.4046,-2.3998,-2.4024,-2.4041,-2.3998,-2.4034,-2.403,-2.4033,-2.408,-2.4099,-2.4079,-2.418,-2.4143,-2.415,-2.4152,-2.418,-2.4193,-2.4204,-2.4056,-2.4055,-2.4055,0,0,-2.4076,-2.4074,-2.411,-2.4112,-2.4114,-2.4103,-2.4112,-2.4107,-2.4104,-2.4139,-2.4108,-2.4128,-2.4159,-2.4163,-2.4169,-2.4252,-2.4228,-2.4258,-2.431,-2.434,-2.435,-2.4359,-2.4391,-2.4403,-2.4264,-2.4264,-2.4265,0,-2.4121,-2.4154,-2.413,-2.4159,-2.4167,-2.413,-2.4167,-2.417,-2.4177,-2.4184,-2.4161,-2.42,-2.4199,-2.4247,-2.4268,-2.4273,-2.4284,-2.4259,-2.435,-2.4359,-2.4368,-2.4398,-2.441,-2.4268,-2.4268,-2.4267,-2.4267,0,-2.4211,-2.4235,-2.4263,-2.4272,-2.4283,-2.4316,-2.4298,-2.4312,-2.4296,-2.4287,-2.4325,-2.4323,-2.4339,-2.4348,-2.4331,-2.4394,-2.4382,-2.4355,-2.4314,-2.4385,-2.4413,-2.4424,-2.4274,-2.4272,-2.4271,-2.427,0,0,-2.4326,-2.4323,-2.4334,-2.4339,-2.4339,-2.4357,-2.4389,-2.4404,-2.4418,-2.4425,-2.4452,-2.4479,-2.4455,-2.4462,-2.4446,-2.4471,-2.4541,-2.4441,-2.4441,-2.4462,-2.4613,-2.4635,-2.4648,-2.4524,-2.4526,-2.4528,-2.4613,0,-2.4405,-2.4459,-2.4439,-2.4494,-2.4517,-2.4483,-2.451,-2.4514,-2.4508,-2.4527,-2.4519,-2.454,-2.4505,-2.451,-2.4534,-2.4527,-2.4571,-2.452,-2.4551,-2.4552,-2.4553,-2.4662,-2.4685,-2.4766,-2.4624,-2.4625,-2.4627,0,-2.4504,-2.4516,-2.4574,-2.4573,-2.4582,-2.4607,-2.4621,-2.4639,-2.4643,-2.4637,-2.4646,-2.4624,-2.4656,-2.4614,-2.4659,-2.4625,-2.4636,-2.4635,-2.4638,-2.4641,-2.4595,-2.4671,-2.4791,-2.4804,-2.4643,-2.4642,-2.4641,0,-2.4585,-2.4615,-2.4654,-2.4659,-2.4658,-2.4677,-2.4678,-2.468,-2.4691,-2.4704,-2.4711,-2.4727,-2.4736,-2.4749,-2.4733,-2.4703,-2.4781,-2.4737,-2.4778,-2.4779,-2.4797,-2.4797,-2.4923,-2.4801,-2.4801,-2.4801,-2.48,0,-2.4676,-2.4714,-2.4691,-2.4716,-2.4757,-2.4734,-2.4776,-2.4773,-2.4776,-2.48,-2.477,-2.4793,-2.477,-2.4791,-2.4778,-2.4819,-2.4823,-2.4819,-2.4816,-2.4823,-2.4824,-2.4832,-2.4827,-2.4804,-2.4803,-2.4802,-2.4802,0,-2.4774,-2.476,-2.4801,-2.4797,-2.4797,-2.4829,-2.4826,-2.4849,-2.484,-2.4871,-2.4877,-2.4864,-2.4888,-2.4873,-2.4896,-2.4888,-2.4942,-2.493,-2.4941,-2.4939,-2.4982,-2.4979,-2.5119,-2.5137,-2.5001,-2.5003,-2.5004,0,-2.4834,-2.4863,-2.4862,-2.4877,-2.4879,-2.4902,-2.4914,-2.4893,-2.4907,-2.4916,-2.4938,-2.4959,-2.4976,-2.5016,-2.5009,-2.5028,-2.5017,-2.5065,-2.5019,-2.5027,-2.5021,-2.502,-2.5024,-2.5074,-2.5076,-2.5077,-2.5078,0,-2.4944,-2.4936,-2.4954,-2.4971,-2.4986,-2.4998,-2.5008,-2.5021,-2.5,-2.5018,-2.5042,-2.5055,-2.508,-2.5102,-2.5118,-2.5119,-2.5097,-2.5092,-2.5103,-2.5112,-2.5119,-2.5118,-2.4968,-2.509,-2.5089,-2.5088,-2.5087,-2.5087,-2.5026,-2.505,-2.5055,-2.5077,-2.5082,-2.5092,-2.5115,-2.511,-2.513,-2.5149,-2.5135,-2.5165,-2.5171,-2.519,-2.5194,-2.5218,-2.5199,-2.5214,-2.5218,-2.5223,-2.523,-2.5113,-2.522,-2.522,-2.522,-2.5219,-2.5219,0,-2.5136,-2.5137,-2.5158,-2.5173,-2.5191,-2.5167,-2.5177,-2.5194,-2.522,-2.5227,-2.5245,-2.5274,-2.5296,-2.5291,-2.5312,-2.5332,-2.5322,-2.5338,-2.5337,-2.5339,-2.5245,-2.5234,-2.5346,-2.5346,-2.5346,-2.5346,-2.5346,-2.5346,-2.5195,-2.5236,-2.5229,-2.5273,-2.5274,-2.5304,-2.5312,-2.5322,-2.5328,-2.5362,-2.538,-2.5377,-2.538,-2.5401,-2.5421,-2.5419,-2.5429,-2.5449,-2.5444,-2.5357,-2.5345,-2.5333,-2.5323,-2.5451,-2.5451,-2.5536,-2.5537,-2.5537]}]]